Ludington, MI

1:22 AM EDT on July 24, 2019 (GMT -0400)
Mason County

Weather History for KLDM - May, 2019

Change the Weather History Date:

Thursday, May 23, 2019

  Actual Average Record
Temperature  
Mean Temperature 60 °F -  
Max Temperature 69 °F 69 °F 86 °F (1980)
Min Temperature 50 °F 44 °F 27 °F (1958)
Degree Days  
Heating Degree Days 6    
Growing Degree Days 10 (Base 50)    
Moisture  
Dew Point 50 °F    
Average Humidity 74    
Maximum Humidity 98    
Minimum Humidity 56    
Precipitation  
Precipitation 0.09 in - - ()
Sea Level Pressure  
Sea Level Pressure 29.92 in    
Wind  
Wind Speed 10 mph (WSW)    
Max Wind Speed 21 mph    
Max Gust Speed 30 mph    
Visibility 9 miles    
Events Fog , Rain    
Averages and records for this station are not official NWS values.
T = Trace of Precipitation, MM = Missing Value Source: NWS Daily Summary

Daily Weather History Graph

Daily Weather History Graph

Search for Another Location

Airport or City:

Astronomy

May. 23, 2019 Rise Set
Actual Time 6:12 AM EDT 9:13 PM EDT
Civil Twilight 5:37 AM EDT 9:47 PM EDT
Nautical Twilight 4:54 AM EDT 10:31 PM EDT
Astronomical Twilight 4:02 AM EDT 11:24 PM EDT
Moon 12:56 AM EDT (5/23) 10:14 AM EDT (5/23)
Length of Visible Light 16h 09m
Length of Day
15h 00m
Waning Gibbous, 77% of the Moon is Illuminated
May 23
Waning Gibbous
May 26
Last Quarter
Jun 3
New
Jun 10
First Quarter
Jun 17
Full

Hourly Weather History & Observations

Time (EDT) Temp. Dew Point Humidity Pressure Visibility Wind Dir Wind Speed Gust Speed Precip Events Conditions
12:15 AM 69.4 °F 58.1 °F 67% 29.83 in 10.0 mi South 10.4 mph 19.6 mph N/A   Mostly Cloudy
12:16 AM 69.4 °F 58.1 °F 67% 29.83 in 10.0 mi South 10.4 mph 17.3 mph N/A   Mostly Cloudy
12:35 AM 68.9 °F 57.7 °F 68% 29.83 in 10.0 mi SSW 9.2 mph 16.1 mph N/A   Mostly Cloudy
12:36 AM 68.7 °F 57.7 °F 68% 29.83 in 10.0 mi SSW 9.2 mph 16.1 mph N/A   Mostly Cloudy
12:55 AM 63.3 °F 55.6 °F 76% 29.84 in 10.0 mi WSW 8.1 mph - N/A   Scattered Clouds
1:15 AM 61.0 °F 54.3 °F 79% 29.85 in 10.0 mi SW 6.9 mph - N/A   Mostly Cloudy
1:35 AM 65.7 °F 58.8 °F 79% 29.84 in 10.0 mi SSW 13.8 mph 20.7 mph N/A   Mostly Cloudy
1:36 AM 66.0 °F 59.0 °F 78% 29.84 in 10.0 mi SSW 13.8 mph 20.7 mph N/A   Mostly Cloudy
1:55 AM 65.5 °F 60.8 °F 85% 29.85 in 10.0 mi SSW 20.7 mph 26.5 mph N/A Rain Rain
1:56 AM 65.5 °F 61.0 °F 85% 29.85 in 10.0 mi SSW 18.4 mph 26.5 mph N/A Rain Rain
2:15 AM 63.0 °F 60.6 °F 92% 29.84 in 5.0 mi SSW 16.1 mph 29.9 mph 0.03 in Rain Heavy Rain
2:35 AM 62.6 °F 60.4 °F 93% 29.84 in 10.0 mi South 18.4 mph 25.3 mph 0.07 in Rain Light Rain
2:55 AM 62.6 °F 60.4 °F 93% 29.82 in 10.0 mi South 13.8 mph 20.7 mph 0.07 in   Overcast
2:56 AM 62.6 °F 60.4 °F 93% 29.82 in 10.0 mi South 15.0 mph 20.7 mph 0.07 in   Overcast
3:15 AM 61.0 °F 59.0 °F 93% 29.82 in 10.0 mi South 16.1 mph 23.0 mph N/A   Overcast
3:16 AM 61.0 °F 59.0 °F 93% 29.82 in 10.0 mi South 16.1 mph 23.0 mph N/A   Overcast
3:35 AM 60.1 °F 58.8 °F 96% 29.80 in 7.0 mi SSW 10.4 mph - N/A   Overcast
3:55 AM 61.2 °F 60.1 °F 96% 29.79 in 10.0 mi SSW 9.2 mph - N/A Rain Light Rain
4:15 AM 62.2 °F 61.0 °F 96% 29.79 in 5.0 mi SSW 17.3 mph 24.2 mph 0.01 in Rain Light Rain
4:16 AM 62.1 °F 60.8 °F 96% 29.79 in 5.0 mi SSW 18.4 mph 24.2 mph 0.01 in Rain Light Rain
4:35 AM 61.7 °F 60.6 °F 96% 29.79 in 5.0 mi SSW 13.8 mph - 0.02 in Rain Light Rain
4:36 AM 61.7 °F 60.8 °F 97% 29.79 in 5.0 mi SSW 13.8 mph - 0.02 in Rain Light Rain
4:55 AM 61.9 °F 60.8 °F 96% 29.79 in 4.0 mi SSW 10.4 mph - 0.02 in   Overcast
4:56 AM 61.7 °F 60.8 °F 97% 29.79 in 4.0 mi SW 10.4 mph - 0.02 in   Overcast
5:15 AM 61.0 °F 60.1 °F 97% 29.80 in 3.0 mi SSW 11.5 mph 19.6 mph N/A   Overcast
5:35 AM 59.2 °F 58.5 °F 97% 29.80 in 0.8 mi SW 12.7 mph 18.4 mph N/A   Overcast
5:55 AM 58.1 °F 57.4 °F 97% 29.81 in 0.2 mi WSW 11.5 mph - N/A Fog Fog
5:56 AM 58.1 °F 57.4 °F 97% 29.81 in 0.2 mi WSW 11.5 mph - N/A Fog Fog
6:15 AM 56.5 °F 55.9 °F 98% 29.82 in 0.2 mi WSW 12.7 mph 19.6 mph N/A Fog Fog
6:16 AM 56.5 °F 55.8 °F 97% 29.82 in 0.2 mi WSW 12.7 mph 19.6 mph N/A Fog Fog
6:35 AM 52.7 °F 52.2 °F 98% 29.83 in 0.2 mi WSW 10.4 mph 16.1 mph N/A Fog Fog
6:55 AM 51.1 °F 50.4 °F 97% 29.84 in 1.2 mi West 4.6 mph - N/A   Overcast
7:15 AM 50.5 °F 49.8 °F 97% 29.84 in 5.0 mi West 4.6 mph - N/A   Scattered Clouds
7:35 AM 51.1 °F 49.5 °F 94% 29.84 in 10.0 mi West 5.8 mph - N/A   Scattered Clouds
7:36 AM 51.1 °F 49.5 °F 94% 29.84 in 10.0 mi West 5.8 mph - N/A   Scattered Clouds
7:55 AM 52.3 °F 49.6 °F 91% 29.86 in 10.0 mi WSW 4.6 mph - N/A   Scattered Clouds
7:56 AM 52.3 °F 49.6 °F 91% 29.86 in 10.0 mi WSW 4.6 mph - N/A   Scattered Clouds
8:15 AM 54.3 °F 49.3 °F 83% 29.86 in 10.0 mi West 4.6 mph - N/A   Clear
8:35 AM 56.3 °F 49.8 °F 79% 29.86 in 10.0 mi WSW 8.1 mph - N/A   Clear
8:55 AM 56.8 °F 49.8 °F 77% 29.86 in 10.0 mi WSW 11.5 mph - N/A   Clear
9:15 AM 56.8 °F 48.6 °F 74% 29.86 in 10.0 mi WSW 13.8 mph 17.3 mph N/A   Clear
9:16 AM 57.0 °F 48.6 °F 73% 29.86 in 10.0 mi WSW 12.7 mph 17.3 mph N/A   Clear
9:35 AM 57.6 °F 48.7 °F 72% 29.86 in 10.0 mi WSW 11.5 mph 16.1 mph N/A   Clear
9:55 AM 59.2 °F 47.7 °F 66% 29.87 in 10.0 mi WSW 12.7 mph 19.6 mph N/A   Clear
10:15 AM 58.1 °F 48.2 °F 70% 29.89 in 10.0 mi WSW 12.7 mph - N/A   Clear
10:16 AM 58.1 °F 48.2 °F 70% 29.89 in 10.0 mi WSW 13.8 mph - N/A   Clear
10:35 AM 58.3 °F 48.4 °F 70% 29.89 in 10.0 mi WSW 12.7 mph 19.6 mph N/A   Clear
10:36 AM 58.3 °F 48.6 °F 70% 29.89 in 10.0 mi WSW 11.5 mph 17.3 mph N/A   Clear
10:55 AM 58.6 °F 47.8 °F 67% 29.90 in 10.0 mi WSW 13.8 mph 19.6 mph N/A   Clear
11:15 AM 57.9 °F 47.7 °F 69% 29.90 in 10.0 mi WSW 12.7 mph 18.4 mph N/A   Clear
11:35 AM 57.6 °F 47.1 °F 68% 29.92 in 10.0 mi WSW 13.8 mph - N/A   Clear
11:36 AM 57.6 °F 47.1 °F 68% 29.92 in 10.0 mi WSW 12.7 mph 18.4 mph N/A   Clear
11:55 AM 57.9 °F 46.9 °F 67% 29.92 in 10.0 mi WSW 15.0 mph 20.7 mph N/A   Clear
11:56 AM 58.1 °F 46.9 °F 66% 29.93 in 10.0 mi WSW 17.3 mph 20.7 mph N/A   Clear
12:15 PM 57.4 °F 46.6 °F 67% 29.94 in 10.0 mi WSW 12.7 mph 20.7 mph N/A   Scattered Clouds
12:35 PM 57.4 °F 47.1 °F 69% 29.94 in 10.0 mi WSW 11.5 mph - N/A   Scattered Clouds
12:55 PM 58.1 °F 47.1 °F 67% 29.94 in 10.0 mi WSW 8.1 mph - N/A   Clear
12:56 PM 58.3 °F 47.3 °F 67% 29.94 in 10.0 mi WSW 9.2 mph - N/A   Clear
1:15 PM 57.6 °F 46.2 °F 66% 29.93 in 10.0 mi WSW 11.5 mph - N/A   Clear
1:16 PM 57.4 °F 46.0 °F 66% 29.93 in 10.0 mi West 10.4 mph 16.1 mph N/A   Clear
1:35 PM 59.4 °F 47.5 °F 65% 29.94 in 10.0 mi WSW 11.5 mph - N/A   Clear
1:36 PM 59.2 °F 47.5 °F 65% 29.94 in 10.0 mi WSW 11.5 mph - N/A   Clear
1:55 PM 61.0 °F 48.2 °F 63% 29.95 in 10.0 mi West 9.2 mph - N/A   Clear
2:15 PM 61.0 °F 46.9 °F 60% 29.96 in 10.0 mi WSW 9.2 mph 17.3 mph N/A   Mostly Cloudy
2:16 PM 61.0 °F 47.1 °F 60% 29.96 in 10.0 mi WSW 10.4 mph 17.3 mph N/A   Mostly Cloudy
2:59 PM 58.3 °F 46.0 °F 64% 29.97 in 10.0 mi WSW 8.1 mph - N/A   Overcast
3:15 PM 59.2 °F 45.9 °F 61% 29.97 in 10.0 mi West 9.2 mph - N/A   Overcast
3:35 PM 60.3 °F 46.2 °F 60% 29.98 in 10.0 mi WNW 9.2 mph - N/A   Overcast
3:55 PM 62.4 °F 46.6 °F 56% 29.98 in 10.0 mi WNW 8.1 mph 16.1 mph N/A   Mostly Cloudy
3:56 PM 62.4 °F 46.8 °F 57% 29.98 in 10.0 mi WNW 9.2 mph 16.1 mph N/A   Mostly Cloudy
4:15 PM 62.1 °F 46.9 °F 58% 29.99 in 10.0 mi West 5.8 mph - N/A   Scattered Clouds
4:16 PM 62.1 °F 46.9 °F 58% 29.99 in 10.0 mi West 8.1 mph - N/A   Scattered Clouds
4:35 PM 61.3 °F 46.6 °F 58% 29.99 in 10.0 mi West 8.1 mph - N/A   Clear
4:55 PM 62.2 °F 46.6 °F 57% 29.99 in 10.0 mi West 10.4 mph 16.1 mph N/A   Clear
5:15 PM 59.5 °F 46.0 °F 61% 30.00 in 10.0 mi WNW 9.2 mph - N/A   Clear
5:35 PM 61.3 °F 46.6 °F 58% 30.00 in 10.0 mi WNW 6.9 mph - N/A   Clear
5:36 PM 61.3 °F 46.6 °F 58% 30.00 in 10.0 mi WNW 8.1 mph - N/A   Clear
5:55 PM 61.2 °F 46.8 °F 59% 30.02 in 10.0 mi West 8.1 mph - N/A   Clear
6:15 PM 60.1 °F 46.0 °F 60% 30.02 in 10.0 mi West 6.9 mph - N/A   Clear
6:35 PM 60.4 °F 46.6 °F 60% 30.02 in 10.0 mi WNW 6.9 mph - N/A   Clear
6:55 PM 61.5 °F 46.4 °F 58% 30.02 in 10.0 mi WNW 9.2 mph - N/A   Clear
6:56 PM 61.5 °F 46.2 °F 57% 30.02 in 10.0 mi WNW 9.2 mph - N/A   Clear
7:15 PM 61.7 °F 46.4 °F 57% 30.02 in 10.0 mi WNW 5.8 mph - N/A   Clear
7:16 PM 61.7 °F 46.4 °F 57% 30.02 in 10.0 mi WNW 6.9 mph - N/A   Clear
7:35 PM 61.5 °F 46.2 °F 57% 30.02 in 10.0 mi West 5.8 mph - N/A   Clear
7:55 PM 61.0 °F 46.2 °F 58% 30.02 in 10.0 mi NW 6.9 mph - N/A   Clear
8:15 PM 59.4 °F 46.4 °F 62% 30.02 in 10.0 mi NNW 6.9 mph - N/A   Clear
8:16 PM 59.4 °F 46.2 °F 62% 30.02 in 10.0 mi NW 5.8 mph - N/A   Clear
8:35 PM 58.6 °F 45.9 °F 63% 30.03 in 10.0 mi WNW 4.6 mph - N/A   Clear
8:55 PM 57.2 °F 45.5 °F 65% 30.04 in 10.0 mi NW 4.6 mph - N/A   Clear
9:15 PM 55.6 °F 45.1 °F 68% 30.04 in 10.0 mi Calm Calm - N/A   Clear
9:16 PM 55.6 °F 45.1 °F 68% 30.04 in 10.0 mi Calm Calm - N/A   Clear
9:35 PM 55.4 °F 45.1 °F 68% 30.05 in 10.0 mi Calm Calm - N/A   Clear
9:36 PM 55.4 °F 45.1 °F 68% 30.05 in 10.0 mi Calm Calm - N/A   Clear
9:55 PM 55.2 °F 45.0 °F 68% 30.05 in 10.0 mi NW 3.5 mph - N/A   Clear
10:15 PM 53.8 °F 45.1 °F 73% 30.07 in 10.0 mi Calm Calm - N/A   Clear
10:35 PM 53.8 °F 44.8 °F 72% 30.08 in 10.0 mi Calm Calm - N/A   Clear
10:36 PM 53.6 °F 44.8 °F 72% 30.08 in 10.0 mi Calm Calm - N/A   Clear
10:55 PM 53.6 °F 45.0 °F 73% 30.09 in 10.0 mi Calm Calm - N/A   Clear
10:56 PM 53.4 °F 45.0 °F 73% 30.09 in 10.0 mi Calm Calm - N/A   Clear
11:15 PM 51.3 °F 44.8 °F 78% 30.10 in 10.0 mi Calm Calm - N/A   Clear
11:35 PM 50.5 °F 44.1 °F 78% 30.10 in 10.0 mi Calm Calm - N/A   Scattered Clouds
11:55 PM 50.5 °F 43.7 °F 77% 30.09 in 10.0 mi Calm Calm - N/A   Scattered Clouds
11:56 PM 50.4 °F 43.7 °F 78% 30.09 in 10.0 mi West 3.5 mph - N/A   Scattered Clouds